Regional Weather Roundup
Issued by NWS

Home | Current Version | Previous Version | Text Only | Print | Product List | Glossary On
Versions: 1 2 3 4 5 6 7 8 9 10 11 12 13 14 15 16 17 18 19 20 21 22 23 24 25 26 27 28 29 30 31 32 33 34 35 36 37 38 39 40 41 42 43 44 45 46 47 48 49 50
000
ASUS43 KMPX 190310
RWRMN
WEATHER ROUNDUP FOR MINNESOTA
NATIONAL WEATHER SERVICE TWIN CITIES/CHANHASSEN MN
900 PM CST TUE DEC 18 2018


NOTE: "FAIR" INDICATES FEW OR NO CLOUDS BELOW 12,000 FEET WITH NO
SIGNIFICANT WEATHER AND/OR OBSTRUCTIONS TO VISIBILITY. N/A MEANS
CURRENT SKY AND/OR WEATHER CONDITIONS ARE NOT AVAILABLE.

MNZ060>063-068>070-190400-
   Twin Cities Metro

CITY           SKY/WX    TMP DP  RH WIND       PRES   REMARKS
TWIN CITIES    CLOUDY    37  31  78 S6        29.81F
ST PAUL        FAIR      34  29  82 S6        29.82F WCI  29
CRYSTAL        FAIR      33  29  85 CALM      29.80S
BLAINE         MOCLDY    37  30  75 CALM      29.80F
LAKEVILLE      FAIR      32  32 100 CALM      29.81S
EDEN PRAIRIE   FAIR      35  29  78 S7        29.79F WCI  29
SOUTH ST PAUL  FAIR      34  30  86 CALM      29.81F
LAKE ELMO        N/A     34  32  93 CALM      29.82S
$$
MNZ001>005-007-008-013>017-022>024-027-028-190400-
   Northwest Minnesota

CITY           SKY/WX    TMP DP  RH WIND       PRES   REMARKS
BEMIDJI        FAIR      27  24  87 S3        29.68F
HALLOCK        CLEAR     19  19 100 S13       29.62F WCI   7
ROSEAU         FAIR      21  18  86 S7        29.64F WCI  13
WARROAD        FAIR      25  21  86 S5        29.64F WCI  19
THIEF RVR FALL PTCLDY    26  25  96 S13       29.68F WCI  15
CROOKSTON      MOCLDY    25  23  93 S8        29.68F WCI  16
FOSSTON        CLEAR     25  21  86 S10       29.70F WCI  15
DETROIT LAKES  FAIR      30  28  93 SE5       29.72F WCI  25
MOORHEAD       CLEAR     28  27  93 SE8       29.72F WCI  20
PARK RAPIDS    FAIR      25  23  92 S6        29.71F WCI  18
MAHNOMEN       FAIR      27  25  91 S8        29.70F WCI  19
$$
MNZ006-009>011-018-025>026-190400-
   North Central Minnesota

CITY           SKY/WX    TMP DP  RH WIND       PRES   REMARKS
BAUDETTE       FAIR      23  20  88 SE5       29.65F WCI  17
FLAG ISLAND    FAIR      18  16  93 S9        29.63F WCI   6
INTL FALLS     FAIR      21  18  88 S3        29.70F
WASKISH        FAIR      21  19  93 S3        29.68F
BIG FORK       FAIR      23  21  93 CALM      29.71F
LONGVILLE      FAIR      19  18  93 CALM      29.73F
GRAND RAPIDS   FAIR      25  24  96 S6        29.74F WCI  18
CRANE LAKE     FAIR      14  12  92 CALM      29.74F
ORR            FAIR      23  19  86 CALM      29.70S
COOK           FAIR      19  18  93 CALM      29.72F
WALKER         FAIR      29  25  84 S5        29.71F WCI  24
$$
MNZ012-019>021-037-190400-
   Northeast Minnesota

CITY           SKY/WX    TMP DP  RH WIND       PRES   REMARKS
DULUTH         FAIR      32  27  81 W9        29.75S WCI  24
ELY              N/A     18  14  86 CALM      29.73S
HIBBING        FAIR      13  13 100 CALM      29.73F FOG
EVELETH        FAIR      15  13  92 CALM      29.75F
DULUTH HARBOR  FAIR      30  28  93 MISG      29.79S
TWO HARBORS    FAIR      27  21  80 SW3       29.74F
SILVER BAY     FAIR      23  23 100 CALM      29.74S
GRAND MARAIS     N/A     29  22  75 W3        29.76R
G MARAIS ARPRT FAIR      23  18  80 W7        29.72S WCI  15
$$
MNZ029>031-032-039>041-046>048-054>057-064-190400-
   West Central Minnesota

CITY           SKY/WX    TMP DP  RH WIND       PRES   REMARKS
FERGUS FALLS   FAIR      28  25  86 S9        29.77F WCI  20
WHEATON        CLEAR     32  28  86 SE9       29.75F WCI  24
MORRIS         CLEAR     27  27 100 SE7       29.75F WCI  19
ALEXANDRIA     FAIR      28  24  85 S5        29.76F WCI  23
ELBOW LAKE     FAIR      28  28  98 E8        29.74F WCI  20
WADENA         FAIR      21  21 100 CALM      29.73F FOG
GLENWOOD       FAIR      28  28 100 S6        29.76F WCI  22
APPLETON       CLOUDY    34  30  86 CALM      29.75F
BENSON         PTCLDY    28  27  93 CALM      29.78R
ORTONVILLE     CLEAR     30  27  86 CALM      29.75S
MADISON        CLEAR     32  32 100 S3        29.75F
WILLMAR        FAIR      28  27  93 SE3       29.78F
$$
MNZ033>034-036-042>043-049>051-058-059-190400-
   Central Minnesota

CITY           SKY/WX    TMP DP  RH WIND       PRES   REMARKS
ST CLOUD       FAIR      30  28  92 CALM      29.79S
SAUK CENTRE    FAIR      25  24  96 CALM      29.77S
PAYNESVILLE    FAIR      32  31  95 CALM      29.77S
AITKIN         FOG       19  19 100 CALM      29.75S VSB 1/2
PINE RIVER     FAIR      19  18  93 CALM      29.78F FOG
BRAINERD       FAIR      27  23  85 S5        29.76F FOG     WCI  22
STAPLES        FAIR      23  23 100 CALM      29.74F FOG
LONG PRAIRIE     N/A     27  27 100 CALM      29.76F
LITTLE FALLS   FAIR      27  27 100 CALM      29.78S
LITCHFIELD     FAIR      34  34 100 CALM      29.78F
BUFFALO        FAIR      34  29  84 CALM      29.79F
MAPLE LAKE     FAIR      34  32  92 CALM      29.78F
HUTCHINSON     CLEAR     32  31  97 SE3       29.80F
$$
MNZ037-044-045-052-053-190400-
   East Central Minnesota

CITY           SKY/WX    TMP DP  RH WIND       PRES   REMARKS
PRINCETON      FAIR      34  30  86 CALM      29.79S
MORA           FAIR      32  28  86 CALM      29.81S
CAMBRIDGE      FAIR      36  27  69 S3        29.79F
RUSH CITY      FAIR      33  28  82 S3        29.80S
MOOSE LAKE     FAIR      28  27  93 CALM      29.76S
HINCKLEY       FAIR      32  28  86 S3        29.78F
CLOQUET        FAIR      30  27  86 SW3       29.76S
MCGREGOR       FAIR      28  27  93 CALM      29.76F
$$
MNZ071>073-080-081-089-090-097-098-190400-
   Southwest Minnesota

CITY           SKY/WX    TMP DP  RH WIND       PRES   REMARKS
MONTEVIDEO     CLOUDY    34  30  86 SW5       29.75F WCI  30
GRANITE FALLS  PTCLDY    34  32  92 SE7       29.78F WCI  28
CANBY          CLEAR     37  34  88 SW5       29.76F
MARSHALL       PTCLDY    34  31  88 CALM      29.78
REDWOOD FALLS  CLOUDY    32  31  96 S3        29.78F
OLIVIA         PTCLDY    32  30  93 SE6       29.77F WCI  26
PIPESTONE      PTCLDY    34  30  86 CALM      29.76F
WINDOM         MOCLDY    36  32  87 S9        29.77F
WORTHINGTON    CLOUDY    35  32  88 SW8       29.78F WCI  29
JACKSON        PTCLDY    34  32  93 SW6       29.79F WCI  29
TRACY          CLOUDY    36  33  88 SW8       29.78S
SLAYTON        CLOUDY    34  30  86 CALM      29.78S
$$
MNZ065>067-074>077-082>085-091>093-190400-
   South Central Minnesota

CITY           SKY/WX    TMP DP  RH WIND       PRES   REMARKS
MANKATO        FAIR      36  32  85 S5        29.82S
NEW ULM        PTCLDY    34  30  86 S5        29.80F WCI  30
ST JAMES       PTCLDY    34  30  86 S5        29.81S WCI  30
FAIRMONT       CLOUDY    33  31  92 S6        29.80F WCI  28
GLENCOE        FAIR      35  32  90 S6        29.79F WCI  30
OWATONNA       FAIR      36  30  80 CALM      29.82
WASECA         FAIR      34  32  93 S7        29.82S WCI  28
ALBERT LEA     FAIR      39  34  81 S6        29.82F
$$
MNZ078>079-086>088-094>096-190400-
   Southeast Minnesota

CITY           SKY/WX    TMP DP  RH WIND       PRES   REMARKS
ROCHESTER      FAIR      35  31  85 S13       29.82F WCI  26
RED WING       FAIR      32  27  80 CALM      29.82F
STANTON        FAIR      34  31  88 CALM      29.80F
DODGE CENTER   FAIR      37  30  75 S15       29.81F
WINONA         FAIR      41  32  70 CALM      29.86R
AUSTIN         FAIR      36  30  80 S8        29.83F
PRESTON        FAIR      37  31  79 S15       29.84F
$$
ABBREVIATIONS USED IN REMARKS
   TC - TEMPERATURES IN CELSIUS
  WCI - WIND CHILL INDEX
   HX - HEAT INDEX
  VSB - VISIBILITY
$$



USA.gov is the U.S. government's official web portal to all federal, state and local government web resources and services.